Colorado Springs, CO

11:09 PM MDT on July 21, 2017 (GMT -0600)
City Of Colorado Springs Municipal

Weather History for KCOS - August, 2013

Change the Weather History Date:

Thursday, August 8, 2013

  Actual Average Record
Temperature  
Mean Temperature 63 °F 70 °F  
Max Temperature 69 °F 83 °F 96 °F (1969)
Min Temperature 56 °F 57 °F 43 °F (1912)
Degree Days  
Heating Degree Days 2 0  
Month to date heating degree days 3 0  
Since 1 June heating degree days 33 89  
Since 1 July heating degree days 8 10  
Cooling Degree Days 0 5  
Month to date cooling degree days 44 43  
Year to date cooling degree days 454 327  
Since 1 June cooling degree days 432 317  
Growing Degree Days 12 (Base 50)    
Moisture  
Dew Point 55 °F    
Average Humidity 75    
Maximum Humidity 93    
Minimum Humidity 57    
Precipitation  
Precipitation 0.00 in 0.12 in 0.67 in (1968)
Month to date precipitation 1.00 0.97  
Year to date precipitation 8.94 11.42  
Snow  
Snow 0.00 in 0.00 in 0.00 in (2002)
Month to date snowfall 0.0 0.0  
Since 1 June snowfall T 0.0  
Since 1 July snowfall T 0.0  
Snow Depth 0.00 in    
Sea Level Pressure  
Sea Level Pressure 30.07 in    
Wind  
Wind Speed 7 mph (SE)    
Max Wind Speed 15 mph    
Max Gust Speed 21 mph    
Visibility 8 miles    
Events Thunderstorm    
T = Trace of Precipitation, MM = Missing Value Source: NWS Daily Summary

Daily Weather History Graph

Daily Weather History Graph

Search for Another Location

Airport or City:

Trip Planner

Search our weather history database for the weather conditions in past years. The results will help you decide how hot, cold, wet, or windy it might be!

Date:

Astronomy

Aug. 08, 2013 Rise Set
Actual Time 6:06 AM MDT 8:01 PM MDT
Civil Twilight 5:37 AM MDT 8:30 PM MDT
Nautical Twilight 5:02 AM MDT 9:05 PM MDT
Astronomical Twilight 4:24 AM MDT 9:43 PM MDT
Moon 7:54 AM MDT (8/8) 8:43 PM MDT (8/8)
Length of Visible Light 14h 53m
Length of Day
13h 55m
Waxing Crescent, 3% of the Moon is Illuminated
Aug 8
Waxing Crescent
Aug 14
First Quarter
Aug 20
Full
Aug 28
Last Quarter
Sep 5
New

Hourly Weather History & Observations

Time (MDT) Temp. Dew Point Humidity Pressure Visibility Wind Dir Wind Speed Gust Speed Precip Events Conditions
12:28 AM 59.0 °F 57.2 °F 94% 30.16 in 4.0 mi South 3.5 mph - N/A   Mostly Cloudy
12:54 AM 59.0 °F 57.0 °F 93% 29.96 in 5.0 mi SSE 5.8 mph - N/A   Mostly Cloudy
1:36 AM 57.2 °F 57.2 °F 100% 30.15 in 4.0 mi SSE 4.6 mph - N/A   Overcast
1:54 AM 57.9 °F 55.9 °F 93% 29.94 in 4.0 mi Calm Calm - N/A   Mostly Cloudy
2:54 AM 57.9 °F 55.9 °F 93% 29.96 in 5.0 mi Calm Calm - N/A   Mostly Cloudy
3:41 AM 57.2 °F 55.4 °F 94% 30.14 in 5.0 mi Calm Calm - N/A   Scattered Clouds
3:54 AM 57.0 °F 55.9 °F 96% 29.94 in 5.0 mi Calm Calm - N/A   Scattered Clouds
4:19 AM 57.2 °F 55.4 °F 94% 30.14 in 4.0 mi Calm Calm - N/A   Mostly Cloudy
4:54 AM 57.0 °F 55.0 °F 93% 29.94 in 4.0 mi NW 4.6 mph - N/A   Mostly Cloudy
5:54 AM 55.9 °F 54.0 °F 93% 29.97 in 5.0 mi Calm Calm - N/A   Mostly Cloudy
6:54 AM 55.9 °F 53.1 °F 90% 30.00 in 10.0 mi West 3.5 mph - N/A   Mostly Cloudy
7:54 AM 61.0 °F 54.0 °F 78% 29.98 in 10.0 mi NNW 11.5 mph - N/A   Mostly Cloudy
8:54 AM 64.9 °F 54.0 °F 68% 30.00 in 10.0 mi North 11.5 mph - N/A   Mostly Cloudy
9:54 AM 68.0 °F 54.0 °F 61% 29.99 in 10.0 mi NE 8.1 mph - N/A   Mostly Cloudy
10:54 AM 66.0 °F 57.0 °F 73% 30.01 in 10.0 mi SSE 9.2 mph - N/A   Mostly Cloudy
11:54 AM 66.9 °F 57.0 °F 70% 30.01 in 10.0 mi South 9.2 mph - N/A   Mostly Cloudy
12:41 PM 64.4 °F 57.2 °F 77% 30.21 in 10.0 mi SSW 9.2 mph - N/A Thunderstorm Thunderstorm
12:54 PM 64.9 °F 57.0 °F 75% 30.01 in 10.0 mi SW 12.7 mph - N/A Thunderstorm Thunderstorm
1:11 PM 64.4 °F 55.4 °F 73% 30.21 in 10.0 mi Variable 6.9 mph - N/A Thunderstorm Thunderstorm
1:41 PM 66.2 °F 53.6 °F 64% 30.21 in 10.0 mi ENE 12.7 mph - N/A   Mostly Cloudy
1:54 PM 68.0 °F 52.0 °F 56% 30.01 in 10.0 mi ENE 11.5 mph - N/A Thunderstorm Thunderstorm
2:14 PM 66.2 °F 51.8 °F 60% 30.21 in 10.0 mi East 11.5 mph - N/A   Mostly Cloudy
2:54 PM 68.0 °F 53.1 °F 59% 30.01 in 10.0 mi ENE 6.9 mph - N/A   Mostly Cloudy
3:54 PM 64.9 °F 55.9 °F 73% 30.02 in 10.0 mi WSW 6.9 mph - N/A   Mostly Cloudy
4:54 PM 69.1 °F 55.0 °F 61% 30.01 in 10.0 mi Variable 5.8 mph - N/A   Mostly Cloudy
5:34 PM 66.2 °F 57.2 °F 73% 30.21 in 10.0 mi SSE 10.4 mph - N/A Thunderstorm Thunderstorm
5:54 PM 66.9 °F 57.0 °F 70% 30.02 in 10.0 mi SSE 11.5 mph - N/A Thunderstorm Thunderstorm
6:31 PM 64.4 °F 57.2 °F 77% 30.22 in 10.0 mi SSE 11.5 mph - N/A   Overcast
6:54 PM 64.9 °F 57.0 °F 75% 30.04 in 10.0 mi SE 10.4 mph - N/A   Mostly Cloudy
7:54 PM 63.0 °F 55.9 °F 78% 30.04 in 10.0 mi SE 4.6 mph - N/A   Mostly Cloudy
8:54 PM 62.1 °F 55.9 °F 80% 30.05 in 10.0 mi Calm Calm - N/A   Mostly Cloudy
9:25 PM 60.8 °F 53.6 °F 77% 30.28 in 10.0 mi NW 8.1 mph - N/A Thunderstorm Thunderstorm
9:54 PM 60.1 °F 48.9 °F 67% 30.07 in 10.0 mi WNW 8.1 mph - N/A Thunderstorm Thunderstorm
10:54 PM 60.1 °F 48.0 °F 64% 30.08 in 10.0 mi NE 12.7 mph - N/A   Mostly Cloudy
11:54 PM 59.0 °F 45.0 °F 60% 30.08 in 10.0 mi North 6.9 mph - N/A   Mostly Cloudy